Weather History for Buffalo, WY

Change the Weather History Date:

Sunday, October 21, 2012

  Actual Average Record
Temperature  
Mean Temperature 40 °F 44 °F  
Max Temperature 44 °F 56 °F 78 °F (2003)
Min Temperature 37 °F 33 °F 26 °F (2006)
Degree Days  
Heating Degree Days 25 21  
Month to date heating degree days 369  
Since 1 July heating degree days 683  
Cooling Degree Days 0 0  
Month to date cooling degree days 0  
Year to date cooling degree days 491  
Moisture  
Dew Point 37 °F    
Average Humidity 91    
Maximum Humidity 100    
Minimum Humidity 76    
Precipitation  
Precipitation 0.03 in 0.02 in 0.03 in (2012)
Month to date precipitation 0.77  
Year to date precipitation 12.35  
Sea Level Pressure  
Sea Level Pressure 29.88 in    
Wind  
Wind Speed 10 mph (ESE)    
Max Wind Speed 21 mph    
Max Gust Speed 28 mph    
Visibility 6 miles    
Events Rain    
T = Trace of Precipitation, MM = Missing Value Source: NWS Daily Summary

Daily Weather History Graph

Daily Weather History Graph

Search for Another Location

Airport:

Trip Planner

Search our weather history database for the weather conditions in past years. The results will help you decide how hot, cold, wet, or windy it might be!

Date:

Astronomy

Oct. 21, 2012 Rise Set
Actual Time 7:30 AM MDT 6:11 PM MDT
Civil Twilight 7:00 AM MDT 6:41 PM MDT
Nautical Twilight 6:26 AM MDT 7:15 PM MDT
Astronomical Twilight 5:53 AM MDT 7:48 PM MDT
Moon 1:57 PM MDT (10/21) No Moon Set
Length of Visible Light 11h 40m
Length of Day
10h 41m
Waxing Crescent, 46% of the Moon is Illuminated
Oct 21
Waxing Crescent
Oct 21
First Quarter
Oct 29
Full
Nov 6
Last Quarter
Nov 13
New

Hourly Weather History & Observations

Time (MDT) Temp. Windchill Dew Point Humidity Pressure Visibility Wind Dir Wind Speed Gust Speed Precip Events Conditions
12:53 AM 42.1 °F 33.9 °F 37.9 °F 85% 29.72 in 10.0 mi North 17.3 mph 26.5 mph N/A   Partly Cloudy
1:05 AM 42.8 °F 34.8 °F 39.2 °F 87% 29.81 in 10.0 mi North 17.3 mph 26.5 mph N/A   Mostly Cloudy
1:17 AM 42.8 °F 34.8 °F 39.2 °F 87% 29.81 in 10.0 mi North 17.3 mph 24.2 mph N/A   Mostly Cloudy
1:53 AM 42.1 °F 33.1 °F 39.0 °F 89% 29.75 in 10.0 mi NNW 20.7 mph 27.6 mph N/A   Overcast
2:53 AM 41.0 °F 34.7 °F 39.0 °F 93% 29.79 in 9.0 mi North 10.4 mph 21.9 mph N/A   Overcast
3:07 AM 41.0 °F 35.8 °F 39.2 °F 93% 29.87 in 10.0 mi North 8.1 mph - N/A   Overcast
3:29 AM 39.2 °F 33.6 °F 39.2 °F 100% 29.87 in 10.0 mi North 8.1 mph - 0.00 in Rain Light Rain
3:48 AM 39.2 °F 34.2 °F 37.4 °F 93% 29.88 in 9.0 mi North 6.9 mph - 0.00 in Rain Light Rain
3:53 AM 39.9 °F 34.5 °F 37.9 °F 93% 29.80 in 7.0 mi North 8.1 mph - 0.00 in Rain Light Rain
4:07 AM 39.2 °F 34.2 °F 39.2 °F 100% 29.88 in 6.0 mi NNW 6.9 mph - 0.00 in Rain Light Rain
4:15 AM 39.2 °F 34.2 °F 39.2 °F 100% 29.88 in 6.0 mi NNW 6.9 mph - 0.00 in Rain Light Rain
4:24 AM 39.2 °F 33.6 °F 39.2 °F 100% 29.88 in 6.0 mi NNW 8.1 mph - 0.01 in Rain Light Rain
4:53 AM 39.0 °F 32.8 °F 37.9 °F 96% 29.82 in 5.0 mi NNW 9.2 mph - 0.01 in Rain Light Rain
5:50 AM 39.2 °F 35.0 °F 37.4 °F 93% 29.90 in 2.0 mi North 5.8 mph - 0.00 in Rain Light Rain
5:53 AM 37.9 °F 30.9 °F 37.0 °F 97% 29.85 in 2.5 mi NNW 10.4 mph - 0.01 in Rain Light Rain
6:02 AM 37.4 °F 31.4 °F 35.6 °F 93% 29.90 in 4.0 mi NNW 8.1 mph - 0.00 in Rain Light Rain
6:16 AM 37.4 °F 32.8 °F 35.6 °F 93% 29.89 in 1.8 mi NNW 5.8 mph - 0.00 in   Overcast
6:30 AM 37.4 °F 34.9 °F 35.6 °F 93% 29.89 in 3.0 mi NW 3.5 mph - 0.00 in   Overcast
6:53 AM 37.0 °F - 36.0 °F 96% 29.87 in 6.0 mi Calm Calm - 0.00 in   Overcast
7:03 AM 37.4 °F - 35.6 °F 93% 29.89 in 7.0 mi Calm Calm - N/A   Overcast
7:32 AM 37.4 °F 33.8 °F 35.6 °F 93% 29.89 in 10.0 mi SW 4.6 mph - N/A   Overcast
7:44 AM 37.4 °F 34.9 °F 35.6 °F 93% 29.89 in 10.0 mi SW 3.5 mph - N/A   Overcast
7:53 AM 37.0 °F 34.5 °F 36.0 °F 96% 29.86 in 6.0 mi South 3.5 mph - N/A   Overcast
8:17 AM 37.4 °F 33.8 °F 37.4 °F 100% 29.90 in 3.0 mi South 4.6 mph - N/A   Overcast
8:29 AM 37.4 °F 33.8 °F 37.4 °F 100% 29.90 in 4.0 mi SSE 4.6 mph - N/A   Overcast
8:46 AM 37.4 °F 33.8 °F 37.4 °F 100% 29.90 in 1.8 mi SE 4.6 mph - N/A   Overcast
8:53 AM 37.9 °F 33.5 °F 37.0 °F 97% 29.87 in 1.0 mi SE 5.8 mph - N/A   Overcast
9:09 AM 39.2 °F 35.9 °F 37.4 °F 93% 29.90 in 0.8 mi SE 4.6 mph - N/A   Mist
9:18 AM 39.2 °F 33.6 °F 37.4 °F 93% 29.90 in 1.2 mi SSE 8.1 mph - N/A   Overcast
9:39 AM 39.2 °F 33.6 °F 39.2 °F 100% 29.89 in 2.5 mi SE 8.1 mph - N/A   Overcast
9:49 AM 39.2 °F 33.6 °F 39.2 °F 100% 29.89 in 5.0 mi SE 8.1 mph - N/A   Overcast
9:53 AM 39.9 °F 33.9 °F 39.0 °F 97% 29.88 in 7.0 mi SE 9.2 mph - N/A   Overcast
10:09 AM 41.0 °F 35.2 °F 39.2 °F 93% 29.89 in 10.0 mi SE 9.2 mph - N/A   Overcast
10:53 AM 41.0 °F 34.7 °F 39.0 °F 93% 29.88 in 9.0 mi SE 10.4 mph - N/A   Overcast
11:37 AM 41.0 °F 34.3 °F 39.2 °F 93% 29.91 in 2.0 mi SSE 11.5 mph - 0.00 in Rain Light Rain
11:45 AM 41.0 °F 34.7 °F 39.2 °F 93% 29.91 in 1.8 mi SSE 10.4 mph - 0.00 in   Overcast
11:53 AM 41.0 °F 34.7 °F 39.9 °F 96% 29.90 in 2.5 mi SSE 10.4 mph - 0.00 in   Overcast
12:21 PM 41.0 °F 35.2 °F 39.2 °F 93% 29.90 in 1.0 mi SE 9.2 mph - 0.01 in Rain Light Rain
12:32 PM 41.0 °F 36.4 °F 39.2 °F 93% 29.90 in 1.5 mi SE 6.9 mph - 0.01 in Rain Light Rain
12:53 PM 41.0 °F 37.1 °F 39.9 °F 96% 29.89 in 1.8 mi SE 5.8 mph - 0.01 in   Overcast
1:00 PM 42.8 °F 39.3 °F 39.2 °F 87% 29.90 in 3.0 mi SE 5.8 mph - N/A   Overcast
1:07 PM 42.8 °F 38.6 °F 39.2 °F 87% 29.89 in 5.0 mi SE 6.9 mph - N/A   Overcast
1:29 PM 41.0 °F 36.4 °F 39.2 °F 93% 29.89 in 4.0 mi ESE 6.9 mph - N/A   Overcast
1:53 PM 42.1 °F 37.7 °F 39.9 °F 92% 29.88 in 3.0 mi SE 6.9 mph - N/A   Overcast
2:27 PM 42.8 °F 38.0 °F 39.2 °F 87% 29.88 in 10.0 mi SE 8.1 mph - N/A   Overcast
2:53 PM 43.0 °F 38.2 °F 37.9 °F 82% 29.87 in 10.0 mi SE 8.1 mph - N/A   Overcast
3:53 PM 43.0 °F 38.2 °F 37.0 °F 80% 29.87 in 10.0 mi East 8.1 mph - N/A   Overcast
4:53 PM 42.1 °F 36.6 °F 35.1 °F 76% 29.87 in 10.0 mi ESE 9.2 mph - N/A   Overcast
5:53 PM 41.0 °F 38.0 °F 34.0 °F 76% 29.89 in 10.0 mi East 4.6 mph - N/A   Overcast
6:53 PM 39.9 °F - 33.1 °F 77% 29.91 in 10.0 mi Calm Calm - N/A   Overcast
7:35 PM 39.2 °F 37.0 °F 33.8 °F 81% 29.90 in 10.0 mi East 3.5 mph - N/A   Scattered Clouds
7:53 PM 37.9 °F - 33.1 °F 83% 29.92 in 10.0 mi Calm Calm - N/A   Partly Cloudy
8:53 PM 39.0 °F - 33.1 °F 79% 29.91 in 10.0 mi Calm Calm - 0.00 in   Overcast
9:53 PM 37.9 °F 34.4 °F 34.0 °F 86% 29.90 in 10.0 mi South 4.6 mph - 0.00 in   Overcast
10:53 PM 37.0 °F 33.3 °F 33.1 °F 86% 29.89 in 10.0 mi East 4.6 mph - 0.00 in   Mostly Cloudy
11:53 PM 37.0 °F 33.3 °F 33.1 °F 86% 29.88 in 10.0 mi East 4.6 mph - N/A   Partly Cloudy